Location: Bush Observatory
(40.2653°N, 94.3194°W)
Time: 05:19:25
(UTC-05:00)

JAS-2 - Visible Passes

Search period start: 24 August 2016 00:00
Search period end: 03 September 2016 00:00
Orbit: 800 x 1322 km, 98.6° (Epoch: 23 August)

Date Brightness Start Highest point End Pass type
(mag) Time Alt. Az. Time Alt. Az. Time Alt. Az.
24 Aug 11.6 00:24:13 10° NE 00:26:43 19° ENE 00:26:43 19° ENE visible
24 Aug 10.5 02:08:23 10° N 02:13:12 48° NNW 02:13:12 48° NNW visible
24 Aug 11.9 03:57:41 10° NW 03:58:49 10° NW 03:59:40 10° WNW visible
25 Aug 10.8 01:13:18 10° NNE 01:17:24 39° NE 01:17:24 39° NE visible
25 Aug 11.1 02:59:11 10° N 03:03:53 27° NW 03:03:53 27° NW visible
26 Aug 11.7 00:19:19 10° NE 00:21:37 18° ENE 00:21:37 18° ENE visible
26 Aug 10.5 02:03:19 10° N 02:08:05 48° NNW 02:08:05 48° NNW visible
26 Aug 11.8 03:51:46 10° NW 03:53:57 12° NW 03:54:34 12° WNW visible
27 Aug 10.9 01:08:18 10° NNE 01:12:18 36° NE 01:12:18 36° NE visible
27 Aug 11.1 02:54:03 10° N 02:58:46 29° NW 02:58:46 29° NW visible
28 Aug 11.8 00:14:27 10° NE 00:16:30 17° ENE 00:16:30 17° ENE visible
28 Aug 10.6 01:58:16 10° N 02:02:59 48° N 02:02:59 48° N visible
28 Aug 11.8 03:46:12 10° NNW 03:49:06 13° WNW 03:49:27 13° WNW visible
29 Aug 11.1 01:03:19 10° NNE 01:07:11 34° NE 01:07:11 34° NE visible
29 Aug 11.1 02:48:56 10° N 02:53:40 30° NW 02:53:40 30° NW visible
30 Aug 11.8 00:09:35 10° NE 00:11:24 16° ENE 00:11:24 16° ENE visible
30 Aug 10.7 01:53:14 10° N 01:57:52 47° N 01:57:52 47° N visible
30 Aug 11.7 03:40:48 10° NNW 03:44:14 14° WNW 03:44:21 14° WNW visible
31 Aug 11.2 00:58:22 10° NNE 01:02:05 32° NE 01:02:05 32° NE visible
31 Aug 11.1 02:43:50 10° N 02:48:33 32° NW 02:48:33 32° NW visible
01 Sep 11.9 00:04:46 10° NE 00:06:17 14° ENE 00:06:17 14° ENE visible
01 Sep 10.8 01:48:13 10° N 01:52:46 45° N 01:52:46 45° N visible
01 Sep 11.7 03:35:30 10° NNW 03:39:15 16° WNW 03:39:15 16° WNW visible
02 Sep 11.3 00:53:25 10° NNE 00:56:58 30° NE 00:56:58 30° NE visible
02 Sep 11.1 02:38:45 10° N 02:43:27 33° NW 02:43:27 33° NW visible
